{"data":{"norad_id":62861,"intl_designator":"2025-022H","name":"STARLINK-32859","alt_names":[],"object_type":"PAYLOAD","status":"ACTIVE","operator":null,"country":"US","launch_date":"2025-02-01","launch_site_code":"AFWTR","launch_vehicle":null,"mission":null,"orbit_class":"UNKNOWN","rcs_meters":null,"size_class":null,"mass_kg":null,"dimensions":null,"purposes":["comms"],"wikipedia_slug":null,"has_3d_model":false,"image_url":null,"decayed_at":null,"tle_current":{"epoch":"2026-05-25T05:24:58.599072Z","epoch_age_seconds":65940,"freshness":"FRESH","line1":"1 62861U 25022H   26145.22567823  .00012254  00000+0  42502-3 0  9996","line2":"2 62861  53.1607 134.4275 0001421  86.6729 273.4434 15.30210562 73618","mean_motion":15.30210562,"eccentricity":0.0001421,"inclination_deg":53.1607,"raan_deg":134.4275,"arg_perigee_deg":86.6729,"mean_anomaly_deg":273.4434,"bstar":0.00042502,"rev_number":7361,"period_min":94.104696161416,"perigee_km":474.20967652474,"apogee_km":476.15739022032,"semimajor_km":6853.3205333725,"source":"CELESTRAK","updated_at":"2026-05-25T13:38:19.784338Z"}}}